This is the latest recevied weather packets stored in our database for station/object JA7ZQY-10. If no packets are shown the sender has not sent any weather packets the latest 10 day(s).
| Time | Temp. | Humidity | Pressure | Rain* | Wind** | Luminosity | Snow |
|---|---|---|---|---|---|---|---|
| 1788365769 | 22.22° C | 99% | 1011.6 hPa | 2.79 mm | - | - | - |
| 1788365168 | 22.22° C | 99% | 1011.6 hPa | 3.56 mm | - | - | - |
| 1788364569 | 22.22° C | 99% | 1011.8 hPa | 4.06 mm | - | - | - |
| 1788363969 | 22.78° C | 99% | 1011.9 hPa | 4.06 mm | - | - | - |
| 1788363368 | 22.78° C | 99% | 1011.9 hPa | 4.06 mm | - | - | - |
| 1788362768 | 22.78° C | 99% | 1011.6 hPa | 3.56 mm | - | - | - |
| 1788362169 | 22.78° C | 99% | 1012.3 hPa | 4.06 mm | - | - | - |
| 1788361567 | 23.33° C | 99% | 1012.3 hPa | 2.79 mm | - | - | - |
| 1788360968 | 22.78° C | 99% | 1012.4 hPa | 2.54 mm | - | - | - |
| 1788360367 | 22.78° C | 99% | 1012 hPa | 2.79 mm | - | - | - |
| 1788359767 | 22.78° C | 99% | 1012.2 hPa | 2.54 mm | - | - | - |
| 1788359167 | 23.33° C | 99% | 1012.4 hPa | 2.29 mm | - | - | - |
| 1788358567 | 23.33° C | 99% | 1012.7 hPa | 1.27 mm | - | - | - |
| 1788357968 | 22.78° C | 99% | 1012.3 hPa | 1.27 mm | - | - | - |
| 1788357368 | 23.33° C | 99% | 1012.3 hPa | 1.27 mm | - | - | - |
| 1788356767 | 23.33° C | 99% | 1012 hPa | 1.27 mm | - | - | - |
| 1788356167 | 22.78° C | 99% | 1012.6 hPa | 1.02 mm | - | - | - |
| 1788355568 | 23.33° C | 99% | 1012.5 hPa | 0.76 mm | - | - | - |
| 1788354968 | 23.33° C | 99% | 1012.5 hPa | 0.51 mm | - | - | - |
| 1788354367 | 23.33° C | 99% | 1012.6 hPa | 0.25 mm | - | - | - |
| 1788353769 | 23.33° C | 99% | 1012.6 hPa | 0.25 mm | - | - | - |
| 1788353168 | 23.33° C | 98% | 1012.4 hPa | 0 mm | - | - | - |
| 1788352568 | 23.33° C | 97% | 1012.4 hPa | 0 mm | - | - | - |
| 1788351968 | 23.33° C | 97% | 1012.5 hPa | 0 mm | - | - | - |
| 1788351367 | 23.33° C | 97% | 1012.5 hPa | 0 mm | - | - | - |
* Rain latest hour (hover to see other rain measurements)
** Current wind speed in m/s (hover to see current wind gust speed)